Content
SEND FEEDBACK

Daily
Averages
Monthly
Summary
Brazil

CUIABA, MATO GROSSO


Home > South America > Brazil > Mato Grosso
Elevation: 623 feet     Latitude: 15 38S     Longitude: 056 06W

WEATHER
 
SELECT A DAY
Number of Records: 165,884;   Date Range: 6/30/96 - 4/18/14
 
SHARE

PRINT THIS DATA

[ ← Previous Day ]
WEATHER ALMANAC - JUNE 24, 2013
[ Next Day → ]
[ °C ]   °F
We're sorry. There is no daily almanac available for Cuiaba, Mato Grosso on June 24, 2013.
WEATHER BY HOUR - JUNE 24, 2013
[ °C ]   °F
Local TimeTemperatureDewpointHumidityBarometerVisibilityWind DirectionWind SpeedGust SpeedPrecipitationEventsConditions
1:00 AM73.4 °F68.0 °F83 %29.95 inSouth (170°)2.3 mphClear
2:00 AM73.0 °F68.0 °F80 %29.92 in12.0 miWSW (240°)2.3 mph
2:00 AM73.4 °F68.0 °F83 %29.95 inWSW (240°)2.3 mphClear
3:00 AM73.4 °F68.0 °F83 %29.95 inSW (220°)2.3 mphClear
4:00 AM73.4 °F68.0 °F83 %29.95 inSSW (210°)2.3 mphClear
5:00 AM71.6 °F68.0 °F88 %29.95 inCalmClear
6:00 AM69.8 °F68.0 °F94 %29.98 inNW (310°)5.8 mphClear
7:00 AM73.4 °F69.8 °F88 %29.98 inNNW (330°)3.5 mphClear
8:00 AM77.0 °F69.8 °F78 %30.01 inWNW (300°)4.6 mphClear
9:00 AM78.8 °F69.8 °F74 %29.98 inWNW (290°)3.5 mphClear
10:00 AM86.0 °F66.2 °F51 %30.01 inWNW (300°)3.5 mphClear
11:00 AM87.8 °F66.2 °F49 %29.98 inNNW (330°)9.2 mphClear
12:00 PM91.4 °F64.4 °F41 %29.95 inNNW (330°)2.3 mphClear
1:00 PM91.4 °F64.4 °F41 %29.92 in6.2 miNNE (30°)3.5 mphPartly Cloudy
2:00 PM93.0 °F61.0 °F24 %29.86 in12.0 miNorth (350°)9.2 mphScattered Clouds
2:00 PM93.2 °F60.8 °F34 %29.89 in6.2 miNorth (350°)9.2 mphPartly Cloudy
3:00 PM93.2 °F59.0 °F32 %29.86 inWNW (300°)8.1 mphClear
4:00 PM93.2 °F60.8 °F34 %29.86 inWNW (290°)6.9 mphClear
5:00 PM86.0 °F60.8 °F43 %29.89 inWNW (300°)5.8 mphClear
6:00 PM80.6 °F60.8 °F51 %29.89 inWest (280°)3.5 mphClear
7:00 PM80.6 °F66.2 °F61 %29.89 inESE (110°)3.5 mphClear
8:00 PM80.0 °F71.0 °F67 %29.91 in12.0 miSSW (200°)8.1 mph
8:00 PM80.6 °F71.6 °F74 %29.92 inSSW (200°)8.1 mphClear
9:00 PM78.8 °F71.6 °F78 %29.95 inSE (140°)11.5 mphClear
10:00 PM77.0 °F69.8 °F78 %29.95 inSouth (180°)9.2 mphClear
11:00 PM77.0 °F69.8 °F78 %29.95 inSouth (170°)6.9 mphClear
Hourly data recorded from SBCY, located 1.85 miles away from Cuiaba, Mato Grosso







STORIES FROM OUR PARTNERS